Weather WX

World > North America > United States > Michigan

Michiana, Michigan Regional Weather

Lat: 41.76N, Lon: 86.81W
Wx Zone: MIZ077
Warning FLW WEATHER ALERT - (More Info. Click Here) Warning
Feedback

Michiana, MI Regional Weather

Expires:201906160000;;129923
ASUS43 KDTX 152301
RWRMI 
MICHIGAN HOURLY REGIONAL WEATHER ROUNDUP
NATIONAL WEATHER SERVICE DETROIT/PONTIAC MI
700 PM EDT SAT JUN 15 2019

NOTE: "FAIR" INDICATES FEW OR NO CLOUDS BELOW 12,000 FEET WITH NO
SIGNIFICANT WEATHER AND/OR OBSTRUCTION TO VISIBILITY.


MIZ043>046-050>051-056>058-064>065-071>073-077>080-160000-
SOUTHWEST LOWER MICHIGAN
  
CITY           SKY/WX    TMP DP  RH WIND       PRES   REMARKS
BATTLE CREEK   CLOUDY    67  63  87 SW7       29.83S                  
BENTON HARBOR  CLOUDY    67  65  93 S3        29.80S                  
BIG RAPIDS     CLOUDY    61  57  85 CALM      29.83R                  
COLDWATER      LGT RAIN  65  65 100 CALM      29.83F                  
FREMONT        CLOUDY    67  58  72 CALM      29.81R                  
HOLLAND        CLOUDY    66  63  90 SW5       29.82R                  
GRAND RAPIDS   CLOUDY    66  63  90 CALM      29.82S FOG              
IONIA          DRIZZLE   64  63  94 NE3       29.82S                  
KALAMAZOO      LGT RAIN  67  63  87 S5        29.82S                  
LUDINGTON      LGT RAIN  58  57  96 CALM      29.83S                  
MARSHALL       CLOUDY    67  67 100 SW8       29.82S                  
MOUNT PLEASANT CLOUDY    63  57  82 NE5       29.84R                  
MUSKEGON       CLOUDY    64  59  83 CALM      29.82R                  
SOUTH HAVEN    DRIZZLE   66  65  95 CALM      29.80F                  
$$

SKY/WX - Weather  TMP - Temperature  DP - Dew Point  RH - Relative Humidity
WIND - Wind Direction/Speed PRES - Barometric Pressure VSB - Visibility
WCI - Wind Chill Index E13G22 Wind - East Wind 13 mph/Gusts of 22 mph